星链-2725 (STARLINK-2725 )

导读

STARLINK-2725是美国SpaceX公司星链星座的组网卫星,于2021年5月26日发射。它属于星链低轨宽带通信卫星,单星重约227kg,采用平板设计与氪工质霍尔推进器,运行于近地轨道。配备Ku/Ka波段通信载荷与自主避撞系统,旨在为全球提供覆盖广泛的高速宽带互联网服务,寿命末期会主动离轨再入大气层销毁,减少空间碎片影响。

基本信息
目录编号:
48681
目录名称:
STARLINK-2725
国际标识:
2021-044AV
轨道中心:
EARTH
卫星名称:
星链-2725
卫星全名:
星链-2725 (STARLINK-2725 )
卫星状态:
在轨 (已飞行1927 天)
发射日期:
2021-05-26 UTC
国别 :
美国 (US)
星等 :
--
轨道信息
数据来源 国际轨道数据
星历时间: 2026-09-04T01:16:45+0800
10小时前
查看轨道信息
半长轴: 6848.845km
偏心率: 0.0001086
轨道倾角: 53.159°
近地点辐角 83.133°
升交点赤经 327.129°
平近点角 276.979°
近地点: 469.964km
远地点: 471.452km
周期: 94.013分钟
每日圈数: 15.31711
详细信息
固有亮度:
5
最大亮度:
2.5
卫星平台:
Starlink v1.5
覆盖范围:
全球
运营商:
太空探索技术公司
运营商所在国:
美国
制造商(研发单位):
太空探索技术公司
制造商所在国:
美国
使用方式:
暂无
卫星简介
星链(Starlink)计划是由太空探索技术公司(SpaceX)提出的一个巨型低轨卫星互联网星座项目,计划在2019年至2024年间在太空搭建由约1.2万颗卫星组成的“星链”网络,其中1584颗将部署在地球上空550千米处的近地轨道,并从2020年开始工作。该卫星仍在工作。
2D轨道图
3D轨道图
轨道高度分析图
轨道倾角分析图
轨道综合分析图
查看轨道综合分析图
交会数据列表
事件ID 空间交会对象 最接近时刻(TCA) 交会距离 交会风险概率(CRP) 交会风险指数(CRI) 操作
CDM_260903-123004-868105-720323
2026-09-03T
12:30:04+0000
1.817 km
极远距离
2.075582E-6 低风险 0.41
CDM_260903-214504-868106-867321
2026-09-03T
21:45:45+0000
2.647 km
极远距离
1.563937E-6 低风险 0.39
CDM_260904-194404-868106-821621
2026-09-04T
19:44:24+0000
2.679 km
极远距离
1.548334E-6 低风险 0.39
CDM_260905-063504-868106-544821
2026-09-05T
06:35:22+0000
2.717 km
极远距离
1.476636E-6 低风险 0.38
CDM_260905-120404-868106-923421
2026-09-05T
12:04:53+0000
2.810 km
极远距离
1.050919E-6 低风险 0.35
CDM_260904-181004-868106-414621
2026-09-04T
18:10:43+0000
2.600 km
极远距离
1.024521E-6 低风险 0.35
CDM_260904-141004-868106-933221
2026-09-04T
14:10:50+0000
2.989 km
极远距离
9.417672E-7 极低风险 0.34
CDM_260903-063804-868106-412022
2026-09-03T
06:38:36+0000
2.615 km
极远距离
8.666894E-7 极低风险 0.34
CDM_260904-040704-868106-756121
2026-09-04T
04:07:39+0000
2.963 km
极远距离
8.307432E-7 极低风险 0.33